Year,Month,Day,Hour,Minute,Value (Times are PST for temperature in C)
2011,05,21,00,00,15.20
2011,05,21,00,01,15.20
2011,05,21,00,02,15.20
2011,05,21,00,03,15.20
2011,05,21,00,04,15.20
2011,05,21,00,05,15.20
2011,05,21,00,06,15.20
2011,05,21,00,07,15.20
2011,05,21,00,08,15.20
2011,05,21,00,09,15.20
2011,05,21,00,10,15.20
2011,05,21,00,11,15.20
2011,05,21,00,12,15.20
2011,05,21,00,13,15.20
2011,05,21,00,14,15.20
2011,05,21,00,15,15.20
2011,05,21,00,16,15.20
2011,05,21,00,17,15.20
2011,05,21,00,18,15.20
2011,05,21,00,19,15.20
2011,05,21,00,20,15.10
2011,05,21,00,21,15.10
2011,05,21,00,22,15.10
2011,05,21,00,23,15.10
2011,05,21,00,24,15.00
2011,05,21,00,25,15.00
2011,05,21,00,26,15.00
2011,05,21,00,27,15.00
2011,05,21,00,28,15.00
2011,05,21,00,29,14.90
2011,05,21,00,30,14.80
2011,05,21,00,31,14.70
2011,05,21,00,32,14.60
2011,05,21,00,33,14.60
2011,05,21,00,34,14.60
2011,05,21,00,35,14.50
2011,05,21,00,36,14.50
2011,05,21,00,37,14.50
2011,05,21,00,38,14.40
2011,05,21,00,39,14.50
2011,05,21,00,40,14.50
2011,05,21,00,41,14.60
2011,05,21,00,42,14.60
2011,05,21,00,43,14.70
2011,05,21,00,44,14.60
2011,05,21,00,45,14.60
2011,05,21,00,46,14.60
2011,05,21,00,47,14.60
2011,05,21,00,48,14.60
2011,05,21,00,49,14.60
2011,05,21,00,50,14.60
2011,05,21,00,51,14.50
2011,05,21,00,52,14.50
2011,05,21,00,53,14.50
2011,05,21,00,54,14.50
2011,05,21,00,55,14.40
2011,05,21,00,56,14.40
2011,05,21,00,57,14.30
2011,05,21,00,58,14.30
2011,05,21,00,59,14.30
2011,05,21,01,00,14.20
2011,05,21,01,01,14.20
2011,05,21,01,02,14.30
2011,05,21,01,03,14.30
2011,05,21,01,04,14.30
2011,05,21,01,05,14.30
2011,05,21,01,06,14.30
2011,05,21,01,07,14.30
2011,05,21,01,08,14.20
2011,05,21,01,09,14.20
2011,05,21,01,10,14.20
2011,05,21,01,11,14.20
2011,05,21,01,12,14.20
2011,05,21,01,13,14.20
2011,05,21,01,14,14.20
2011,05,21,01,15,14.20
2011,05,21,01,16,14.10
2011,05,21,01,17,14.10
2011,05,21,01,18,14.10
2011,05,21,01,19,14.10
2011,05,21,01,20,14.10
2011,05,21,01,21,14.10
2011,05,21,01,22,14.10
2011,05,21,01,23,14.10
2011,05,21,01,24,14.10
2011,05,21,01,25,14.10
2011,05,21,01,26,14.10
2011,05,21,01,27,14.10
2011,05,21,01,28,14.10
2011,05,21,01,29,14.10
2011,05,21,01,30,14.20
2011,05,21,01,31,14.20
2011,05,21,01,32,14.20
2011,05,21,01,33,14.30
2011,05,21,01,34,14.40
2011,05,21,01,35,14.40
2011,05,21,01,36,14.40
2011,05,21,01,37,14.40
2011,05,21,01,38,14.40
2011,05,21,01,39,14.40
2011,05,21,01,40,14.30
2011,05,21,01,41,14.30
2011,05,21,01,42,14.30
2011,05,21,01,43,14.30
2011,05,21,01,44,14.20
2011,05,21,01,45,14.20
2011,05,21,01,46,14.20
2011,05,21,01,47,14.10
2011,05,21,01,48,14.10
2011,05,21,01,49,14.10
2011,05,21,01,50,14.00
2011,05,21,01,51,14.00
2011,05,21,01,52,13.90
2011,05,21,01,53,13.90
2011,05,21,01,54,13.80
2011,05,21,01,55,13.80
2011,05,21,01,56,13.70
2011,05,21,01,57,13.70
2011,05,21,01,58,13.60
2011,05,21,01,59,13.60
2011,05,21,02,00,13.60
2011,05,21,02,01,13.60
2011,05,21,02,02,13.50
2011,05,21,02,03,13.50
2011,05,21,02,04,13.40
2011,05,21,02,05,13.40
2011,05,21,02,06,13.40
2011,05,21,02,07,13.40
2011,05,21,02,08,13.30
2011,05,21,02,09,13.30
2011,05,21,02,10,13.40
2011,05,21,02,11,13.40
2011,05,21,02,12,13.40
2011,05,21,02,13,13.40
2011,05,21,02,14,13.60
2011,05,21,02,15,13.70
2011,05,21,02,16,13.80
2011,05,21,02,17,13.80
2011,05,21,02,18,13.90
2011,05,21,02,19,13.90
2011,05,21,02,20,14.00
2011,05,21,02,21,14.00
2011,05,21,02,22,14.10
2011,05,21,02,23,14.10
2011,05,21,02,24,14.10
2011,05,21,02,25,14.00
2011,05,21,02,26,14.00
2011,05,21,02,27,14.00
2011,05,21,02,28,14.00
2011,05,21,02,29,13.90
2011,05,21,02,30,13.90
2011,05,21,02,31,13.90
2011,05,21,02,32,13.80
2011,05,21,02,33,13.80
2011,05,21,02,34,13.90
2011,05,21,02,35,13.90
2011,05,21,02,36,13.90
2011,05,21,02,37,13.90
2011,05,21,02,38,13.90
2011,05,21,02,39,13.90
2011,05,21,02,40,13.90
2011,05,21,02,41,13.90
2011,05,21,02,42,13.80
2011,05,21,02,43,13.80
2011,05,21,02,44,13.80
2011,05,21,02,45,13.80
2011,05,21,02,46,13.80
2011,05,21,02,47,13.80
2011,05,21,02,48,13.80
2011,05,21,02,49,13.80
2011,05,21,02,50,13.90
2011,05,21,02,51,13.90
2011,05,21,02,52,13.90
2011,05,21,02,53,13.80
2011,05,21,02,54,13.80
2011,05,21,02,55,13.80
2011,05,21,02,56,13.80
2011,05,21,02,57,13.80
2011,05,21,02,58,13.80
2011,05,21,02,59,13.80
2011,05,21,03,00,13.70
2011,05,21,03,01,13.70
2011,05,21,03,02,13.70
2011,05,21,03,03,13.60
2011,05,21,03,04,13.60
2011,05,21,03,05,13.50
2011,05,21,03,06,13.50
2011,05,21,03,07,13.40
2011,05,21,03,08,13.40
2011,05,21,03,09,13.30
2011,05,21,03,10,13.30
2011,05,21,03,11,13.30
2011,05,21,03,12,13.30
2011,05,21,03,13,13.30
2011,05,21,03,14,13.30
2011,05,21,03,15,13.40
2011,05,21,03,16,13.40
2011,05,21,03,17,13.50
2011,05,21,03,18,13.50
2011,05,21,03,19,13.60
2011,05,21,03,20,13.70
2011,05,21,03,21,13.70
2011,05,21,03,22,13.80
2011,05,21,03,23,13.90
2011,05,21,03,24,13.90
2011,05,21,03,25,14.00
2011,05,21,03,26,14.00
2011,05,21,03,27,14.10
2011,05,21,03,28,14.10
2011,05,21,03,29,14.10
2011,05,21,03,30,14.10
2011,05,21,03,31,14.20
2011,05,21,03,32,14.20
2011,05,21,03,33,14.20
2011,05,21,03,34,14.20
2011,05,21,03,35,14.20
2011,05,21,03,36,14.20
2011,05,21,03,37,14.20
2011,05,21,03,38,14.20
2011,05,21,03,39,14.20
2011,05,21,03,40,14.20
2011,05,21,03,41,14.20
2011,05,21,03,42,14.20
2011,05,21,03,43,14.20
2011,05,21,03,44,14.20
2011,05,21,03,45,14.20
2011,05,21,03,46,14.20
2011,05,21,03,47,14.20
2011,05,21,03,48,14.20
2011,05,21,03,49,14.20
2011,05,21,03,50,14.20
2011,05,21,03,51,14.20
2011,05,21,03,52,14.10
2011,05,21,03,53,14.10
2011,05,21,03,54,14.10
2011,05,21,03,55,14.10
2011,05,21,03,56,14.10
2011,05,21,03,57,14.10
2011,05,21,03,58,14.10
2011,05,21,03,59,14.10
2011,05,21,04,00,14.10
2011,05,21,04,01,14.00
2011,05,21,04,02,14.00
2011,05,21,04,03,14.00
2011,05,21,04,04,13.90
2011,05,21,04,05,13.90
2011,05,21,04,06,13.90
2011,05,21,04,07,13.80
2011,05,21,04,08,13.80
2011,05,21,04,09,13.80
2011,05,21,04,10,13.70
2011,05,21,04,11,13.70
2011,05,21,04,12,13.70
2011,05,21,04,13,13.60
2011,05,21,04,14,13.60
2011,05,21,04,15,13.50
2011,05,21,04,16,13.50
2011,05,21,04,17,13.50
2011,05,21,04,18,13.40
2011,05,21,04,19,13.40
2011,05,21,04,20,13.40
2011,05,21,04,21,13.30
2011,05,21,04,22,13.30
2011,05,21,04,23,13.30
2011,05,21,04,24,13.20
2011,05,21,04,25,13.20
2011,05,21,04,26,13.10
2011,05,21,04,27,13.10
2011,05,21,04,28,13.10
2011,05,21,04,29,13.10
2011,05,21,04,30,13.00
2011,05,21,04,31,13.00
2011,05,21,04,32,12.90
2011,05,21,04,33,12.90
2011,05,21,04,34,12.90
2011,05,21,04,35,12.80
2011,05,21,04,36,12.80
2011,05,21,04,37,12.80
2011,05,21,04,38,12.80
2011,05,21,04,39,12.80
2011,05,21,04,40,12.70
2011,05,21,04,41,12.70
2011,05,21,04,42,12.60
2011,05,21,04,43,12.60
2011,05,21,04,44,12.50
2011,05,21,04,45,12.40
2011,05,21,04,46,12.40
2011,05,21,04,47,12.40
2011,05,21,04,48,12.30
2011,05,21,04,49,12.30
2011,05,21,04,50,12.30
2011,05,21,04,51,12.30
2011,05,21,04,52,12.30
2011,05,21,04,53,12.20
2011,05,21,04,54,12.20
2011,05,21,04,55,12.20
2011,05,21,04,56,12.20
2011,05,21,04,57,12.20
2011,05,21,04,58,12.10
2011,05,21,04,59,12.10
2011,05,21,05,00,12.10
2011,05,21,05,01,12.00
2011,05,21,05,02,12.00
2011,05,21,05,03,12.00
2011,05,21,05,04,11.90
2011,05,21,05,05,11.90
2011,05,21,05,06,11.90
2011,05,21,05,07,11.80
2011,05,21,05,08,11.80
2011,05,21,05,09,11.80
2011,05,21,05,10,11.80
2011,05,21,05,11,11.80
2011,05,21,05,12,11.70
2011,05,21,05,13,11.70
2011,05,21,05,14,11.70
2011,05,21,05,15,11.70
2011,05,21,05,16,11.60
2011,05,21,05,17,11.60
2011,05,21,05,18,11.60
2011,05,21,05,19,11.60
2011,05,21,05,20,11.50
2011,05,21,05,21,11.50
2011,05,21,05,22,11.50
2011,05,21,05,23,11.40
2011,05,21,05,24,11.40
2011,05,21,05,25,11.40
2011,05,21,05,26,11.40
2011,05,21,05,27,11.40
2011,05,21,05,28,11.40
2011,05,21,05,29,11.40
2011,05,21,05,30,11.40
2011,05,21,05,31,11.40
2011,05,21,05,32,11.40
2011,05,21,05,33,11.40
2011,05,21,05,34,11.40
2011,05,21,05,35,11.40
2011,05,21,05,36,11.40
2011,05,21,05,37,11.30
2011,05,21,05,38,11.30
2011,05,21,05,39,11.30
2011,05,21,05,40,11.30
2011,05,21,05,41,11.30
2011,05,21,05,42,11.30
2011,05,21,05,43,11.30
2011,05,21,05,44,11.30
2011,05,21,05,45,11.30
2011,05,21,05,46,11.20
2011,05,21,05,47,11.20
2011,05,21,05,48,11.20
2011,05,21,05,49,11.20
2011,05,21,05,50,11.20
2011,05,21,05,51,11.20
2011,05,21,05,52,11.10
2011,05,21,05,53,11.10
2011,05,21,05,54,11.10
2011,05,21,05,55,11.10
2011,05,21,05,56,11.00
2011,05,21,05,57,11.00
2011,05,21,05,58,11.00
2011,05,21,05,59,11.00
2011,05,21,06,00,11.00
2011,05,21,06,01,11.00
2011,05,21,06,02,11.00
2011,05,21,06,03,11.00
2011,05,21,06,04,11.00
2011,05,21,06,05,11.00
2011,05,21,06,06,11.00
2011,05,21,06,07,10.90
2011,05,21,06,08,10.90
2011,05,21,06,09,10.90
2011,05,21,06,10,10.90
2011,05,21,06,11,10.90
2011,05,21,06,12,10.90
2011,05,21,06,13,10.90
2011,05,21,06,14,10.90
2011,05,21,06,15,10.90
2011,05,21,06,16,10.90
2011,05,21,06,17,10.90
2011,05,21,06,18,10.90
2011,05,21,06,19,10.90
2011,05,21,06,20,10.90
2011,05,21,06,21,10.80
2011,05,21,06,22,10.80
2011,05,21,06,23,10.80
2011,05,21,06,24,10.80
2011,05,21,06,25,10.80
2011,05,21,06,26,10.80
2011,05,21,06,27,10.80
2011,05,21,06,28,10.80
2011,05,21,06,29,10.80
2011,05,21,06,30,10.80
2011,05,21,06,31,10.80
2011,05,21,06,32,10.80
2011,05,21,06,33,10.80
2011,05,21,06,34,10.80
2011,05,21,06,35,10.80
2011,05,21,06,36,10.80
2011,05,21,06,37,10.70
2011,05,21,06,38,10.70
2011,05,21,06,39,10.60
2011,05,21,06,40,10.60
2011,05,21,06,41,10.60
2011,05,21,06,42,10.50
2011,05,21,06,43,10.50
2011,05,21,06,44,10.50
2011,05,21,06,45,10.40
2011,05,21,06,46,10.40
2011,05,21,06,47,10.40
2011,05,21,06,48,10.40
2011,05,21,06,49,10.40
2011,05,21,06,50,10.40
2011,05,21,06,51,10.30
2011,05,21,06,52,10.30
2011,05,21,06,53,10.30
2011,05,21,06,54,10.30
2011,05,21,06,55,10.30
2011,05,21,06,56,10.30
2011,05,21,06,57,10.30
2011,05,21,06,58,10.30
2011,05,21,06,59,10.30
2011,05,21,07,00,10.30
2011,05,21,07,01,10.30
2011,05,21,07,02,10.30
2011,05,21,07,03,10.30
2011,05,21,07,04,10.30
2011,05,21,07,05,10.30
2011,05,21,07,06,10.30
2011,05,21,07,07,10.30
2011,05,21,07,08,10.30
2011,05,21,07,09,10.30
2011,05,21,07,10,10.30
2011,05,21,07,11,10.30
2011,05,21,07,12,10.40
2011,05,21,07,13,10.40
2011,05,21,07,14,10.40
2011,05,21,07,15,10.40
2011,05,21,07,16,10.40
2011,05,21,07,17,10.30
2011,05,21,07,18,10.30
2011,05,21,07,19,10.30
2011,05,21,07,20,10.30
2011,05,21,07,21,10.30
2011,05,21,07,22,10.40
2011,05,21,07,23,10.40
2011,05,21,07,24,10.40
2011,05,21,07,25,10.30
2011,05,21,07,26,10.30
2011,05,21,07,27,10.30
2011,05,21,07,28,10.30
2011,05,21,07,29,10.30
2011,05,21,07,30,10.30
2011,05,21,07,31,10.30
2011,05,21,07,32,10.30
2011,05,21,07,33,10.30
2011,05,21,07,34,10.30
2011,05,21,07,35,10.30
2011,05,21,07,36,10.30
2011,05,21,07,37,10.20
2011,05,21,07,38,10.20
2011,05,21,07,39,10.20
2011,05,21,07,40,10.20
2011,05,21,07,41,10.20
2011,05,21,07,42,10.20
2011,05,21,07,43,10.20
2011,05,21,07,44,10.10
2011,05,21,07,45,10.10
2011,05,21,07,46,10.10
2011,05,21,07,47,10.10
2011,05,21,07,48,10.10
2011,05,21,07,49,10.10
2011,05,21,07,50,10.10
2011,05,21,07,51,10.10
2011,05,21,07,52,10.10
2011,05,21,07,53,10.10
2011,05,21,07,54,10.10
2011,05,21,07,55,10.10
2011,05,21,07,56,10.10
2011,05,21,07,57,10.10
2011,05,21,07,58,10.10
2011,05,21,07,59,10.10
2011,05,21,08,00,10.10
2011,05,21,08,01,10.10
2011,05,21,08,02,10.10
2011,05,21,08,03,10.10
2011,05,21,08,04,10.10
2011,05,21,08,05,10.10
2011,05,21,08,06,10.10
2011,05,21,08,07,10.10
2011,05,21,08,08,10.10
2011,05,21,08,09,10.10
2011,05,21,08,10,10.10
2011,05,21,08,11,10.10
2011,05,21,08,12,10.10
2011,05,21,08,13,10.10
2011,05,21,08,14,10.20
2011,05,21,08,15,10.20
2011,05,21,08,16,10.20
2011,05,21,08,17,10.20
2011,05,21,08,18,10.20
2011,05,21,08,19,10.20
2011,05,21,08,20,10.30
2011,05,21,08,21,10.30
2011,05,21,08,22,10.30
2011,05,21,08,23,10.30
2011,05,21,08,24,10.30
2011,05,21,08,25,10.40
2011,05,21,08,26,10.40
2011,05,21,08,27,10.40
2011,05,21,08,28,10.40
2011,05,21,08,29,10.40
2011,05,21,08,30,10.40
2011,05,21,08,31,10.40
2011,05,21,08,32,10.40
2011,05,21,08,33,10.40
2011,05,21,08,34,10.40
2011,05,21,08,35,10.40
2011,05,21,08,36,10.40
2011,05,21,08,37,10.40
2011,05,21,08,38,10.50
2011,05,21,08,39,10.50
2011,05,21,08,40,10.50
2011,05,21,08,41,10.50
2011,05,21,08,42,10.60
2011,05,21,08,43,10.60
2011,05,21,08,44,10.60
2011,05,21,08,45,10.60
2011,05,21,08,46,10.60
2011,05,21,08,47,10.60
2011,05,21,08,48,10.60
2011,05,21,08,49,10.60
2011,05,21,08,50,10.70
2011,05,21,08,51,10.70
2011,05,21,08,52,10.60
2011,05,21,08,53,10.60
2011,05,21,08,54,10.60
2011,05,21,08,55,10.60
2011,05,21,08,56,10.50
2011,05,21,08,57,10.60
2011,05,21,08,58,10.60
2011,05,21,08,59,10.60
2011,05,21,09,00,10.60
2011,05,21,09,01,10.60
2011,05,21,09,02,10.60
2011,05,21,09,03,10.60
2011,05,21,09,04,10.60
2011,05,21,09,05,10.60
2011,05,21,09,06,10.60
2011,05,21,09,07,10.60
2011,05,21,09,08,10.60
2011,05,21,09,09,10.60
2011,05,21,09,10,10.60
2011,05,21,09,11,10.60
2011,05,21,09,12,10.60
2011,05,21,09,13,10.60
2011,05,21,09,14,10.60
2011,05,21,09,15,10.60
2011,05,21,09,16,10.70
2011,05,21,09,17,10.60
2011,05,21,09,18,10.60
2011,05,21,09,19,10.60
2011,05,21,09,20,10.70
2011,05,21,09,21,10.70
2011,05,21,09,22,10.70
2011,05,21,09,23,10.70
2011,05,21,09,24,10.70
2011,05,21,09,25,10.70
2011,05,21,09,26,10.70
2011,05,21,09,27,10.70
2011,05,21,09,28,10.70
2011,05,21,09,29,10.70
2011,05,21,09,30,10.80
2011,05,21,09,31,10.70
2011,05,21,09,32,10.70
2011,05,21,09,33,10.70
2011,05,21,09,34,10.70
2011,05,21,09,35,10.70
2011,05,21,09,36,10.80
2011,05,21,09,37,10.70
2011,05,21,09,38,10.70
2011,05,21,09,39,10.70
2011,05,21,09,40,10.70
2011,05,21,09,41,10.70
2011,05,21,09,42,10.70
2011,05,21,09,43,10.70
2011,05,21,09,44,10.70
2011,05,21,09,45,10.70
2011,05,21,09,46,10.70
2011,05,21,09,47,10.70
2011,05,21,09,48,10.70
2011,05,21,09,49,10.70
2011,05,21,09,50,10.70
2011,05,21,09,51,10.70
2011,05,21,09,52,10.80
2011,05,21,09,53,10.80
2011,05,21,09,54,10.80
2011,05,21,09,55,10.80
2011,05,21,09,56,10.80
2011,05,21,09,57,10.80
2011,05,21,09,58,10.80
2011,05,21,09,59,10.80
2011,05,21,10,00,10.80
2011,05,21,10,01,10.80
2011,05,21,10,02,10.80
2011,05,21,10,03,10.80
2011,05,21,10,04,10.80
2011,05,21,10,05,10.80
2011,05,21,10,06,10.80
2011,05,21,10,07,10.80
2011,05,21,10,08,10.80
2011,05,21,10,09,10.80
2011,05,21,10,10,10.80
2011,05,21,10,11,10.80
2011,05,21,10,12,10.80
2011,05,21,10,13,10.80
2011,05,21,10,14,10.80
2011,05,21,10,15,10.80
2011,05,21,10,16,10.80
2011,05,21,10,17,10.80
2011,05,21,10,18,10.80
2011,05,21,10,19,10.80
2011,05,21,10,20,10.80
2011,05,21,10,21,10.90
2011,05,21,10,22,10.90
2011,05,21,10,23,10.90
2011,05,21,10,24,10.90
2011,05,21,10,25,10.90
2011,05,21,10,26,11.00
2011,05,21,10,27,11.00
2011,05,21,10,28,11.00
2011,05,21,10,29,11.10
2011,05,21,10,30,11.10
2011,05,21,10,31,11.10
2011,05,21,10,32,11.10
2011,05,21,10,33,11.10
2011,05,21,10,34,11.10
2011,05,21,10,35,11.10
2011,05,21,10,36,11.10
2011,05,21,10,37,11.10
2011,05,21,10,38,11.10
2011,05,21,10,39,11.10
2011,05,21,10,40,11.10
2011,05,21,10,41,11.10
2011,05,21,10,42,11.10
2011,05,21,10,43,11.10
2011,05,21,10,44,11.20
2011,05,21,10,45,11.20
2011,05,21,10,46,11.20
2011,05,21,10,47,11.30
2011,05,21,10,48,11.20
2011,05,21,10,49,11.20
2011,05,21,10,50,11.20
2011,05,21,10,51,11.20
2011,05,21,10,52,11.20
2011,05,21,10,53,11.20
2011,05,21,10,54,11.30
2011,05,21,10,55,11.30
2011,05,21,10,56,11.20
2011,05,21,10,57,11.20
2011,05,21,10,58,11.20
2011,05,21,10,59,11.20
2011,05,21,11,00,11.20
2011,05,21,11,01,11.30
2011,05,21,11,02,11.30
2011,05,21,11,03,11.30
2011,05,21,11,04,11.30
2011,05,21,11,05,11.30
2011,05,21,11,06,11.30
2011,05,21,11,07,11.30
2011,05,21,11,08,11.30
2011,05,21,11,09,11.30
2011,05,21,11,10,11.30
2011,05,21,11,11,11.30
2011,05,21,11,12,11.30
2011,05,21,11,13,11.30
2011,05,21,11,14,11.30
2011,05,21,11,15,11.30
2011,05,21,11,16,11.30
2011,05,21,11,17,11.40
2011,05,21,11,18,11.40
2011,05,21,11,19,11.50
2011,05,21,11,20,11.50
2011,05,21,11,21,11.50
2011,05,21,11,22,11.50
2011,05,21,11,23,11.50
2011,05,21,11,24,11.50
2011,05,21,11,25,11.60
2011,05,21,11,26,11.60
2011,05,21,11,27,11.60
2011,05,21,11,28,11.60
2011,05,21,11,29,11.60
2011,05,21,11,30,11.70
2011,05,21,11,31,11.70
2011,05,21,11,32,11.70
2011,05,21,11,33,11.70
2011,05,21,11,34,11.70
2011,05,21,11,35,11.70
2011,05,21,11,36,11.70
2011,05,21,11,37,11.70
2011,05,21,11,38,11.70
2011,05,21,11,39,11.80
2011,05,21,11,40,11.80
2011,05,21,11,41,11.80
2011,05,21,11,42,11.80
2011,05,21,11,43,11.80
2011,05,21,11,44,11.80
2011,05,21,11,45,11.80
2011,05,21,11,46,11.90
2011,05,21,11,47,11.90
2011,05,21,11,48,11.90
2011,05,21,11,49,11.90
2011,05,21,11,50,12.00
2011,05,21,11,51,12.00
2011,05,21,11,52,12.00
2011,05,21,11,53,12.10
2011,05,21,11,54,12.10
2011,05,21,11,55,12.20
2011,05,21,11,56,12.10
2011,05,21,11,57,12.10
2011,05,21,11,58,12.10
2011,05,21,11,59,12.10
2011,05,21,12,00,12.00
2011,05,21,12,01,11.90
2011,05,21,12,02,11.90
2011,05,21,12,03,11.80
2011,05,21,12,04,11.80
2011,05,21,12,05,11.70
2011,05,21,12,06,11.70
2011,05,21,12,07,11.60
2011,05,21,12,08,11.60
2011,05,21,12,09,11.60
2011,05,21,12,10,11.50
2011,05,21,12,11,11.60
2011,05,21,12,12,11.60
2011,05,21,12,13,11.60
2011,05,21,12,14,11.60
2011,05,21,12,15,11.50
2011,05,21,12,16,11.50
2011,05,21,12,17,11.60
2011,05,21,12,18,11.60
2011,05,21,12,19,11.60
2011,05,21,12,20,11.60
2011,05,21,12,21,11.70
2011,05,21,12,22,11.70
2011,05,21,12,23,11.70
2011,05,21,12,24,11.70
2011,05,21,12,25,11.70
2011,05,21,12,26,11.70
2011,05,21,12,27,11.70
2011,05,21,12,28,11.70
2011,05,21,12,29,11.70
2011,05,21,12,30,11.70
2011,05,21,12,31,11.70
2011,05,21,12,32,11.70
2011,05,21,12,33,11.70
2011,05,21,12,34,11.70
2011,05,21,12,35,11.70
2011,05,21,12,36,11.70
2011,05,21,12,37,11.70
2011,05,21,12,38,11.70
2011,05,21,12,39,11.70
2011,05,21,12,40,11.70
2011,05,21,12,41,11.70
2011,05,21,12,42,11.70
2011,05,21,12,43,11.70
2011,05,21,12,44,11.70
2011,05,21,12,45,11.70
2011,05,21,12,46,11.80
2011,05,21,12,47,11.80
2011,05,21,12,48,11.80
2011,05,21,12,49,11.80
2011,05,21,12,50,11.90
2011,05,21,12,51,11.90
2011,05,21,12,52,11.90
2011,05,21,12,53,11.90
2011,05,21,12,54,11.90
2011,05,21,12,55,11.90
2011,05,21,12,56,11.90
2011,05,21,12,57,12.00
2011,05,21,12,58,12.00
2011,05,21,12,59,12.00
2011,05,21,13,00,12.10
2011,05,21,13,01,12.10
2011,05,21,13,02,12.10
2011,05,21,13,03,12.10
2011,05,21,13,04,12.10
2011,05,21,13,05,12.00
2011,05,21,13,06,12.00
2011,05,21,13,07,12.00
2011,05,21,13,08,12.00
2011,05,21,13,09,12.00
2011,05,21,13,10,12.00
2011,05,21,13,11,12.00
2011,05,21,13,12,12.00
2011,05,21,13,13,11.90
2011,05,21,13,14,11.90
2011,05,21,13,15,11.90
2011,05,21,13,16,12.00
2011,05,21,13,17,12.00
2011,05,21,13,18,12.00
2011,05,21,13,19,12.10
2011,05,21,13,20,12.10
2011,05,21,13,21,12.10
2011,05,21,13,22,12.10
2011,05,21,13,23,12.10
2011,05,21,13,24,12.00
2011,05,21,13,25,12.00
2011,05,21,13,26,12.00
2011,05,21,13,27,11.90
2011,05,21,13,28,11.90
2011,05,21,13,29,11.90
2011,05,21,13,30,11.90
2011,05,21,13,31,11.90
2011,05,21,13,32,11.90
2011,05,21,13,33,11.80
2011,05,21,13,34,11.80
2011,05,21,13,35,11.80
2011,05,21,13,36,11.90
2011,05,21,13,37,11.90
2011,05,21,13,38,11.90
2011,05,21,13,39,11.90
2011,05,21,13,40,11.80
2011,05,21,13,41,11.80
2011,05,21,13,42,11.80
2011,05,21,13,43,11.80
2011,05,21,13,44,11.90
2011,05,21,13,45,11.90
2011,05,21,13,46,12.00
2011,05,21,13,47,12.00
2011,05,21,13,48,12.10
2011,05,21,13,49,12.10
2011,05,21,13,50,12.20
2011,05,21,13,51,12.20
2011,05,21,13,52,12.20
2011,05,21,13,53,12.30
2011,05,21,13,54,12.40
2011,05,21,13,55,12.50
2011,05,21,13,56,12.60
2011,05,21,13,57,12.60
2011,05,21,13,58,12.70
2011,05,21,13,59,12.70
2011,05,21,14,00,12.70
2011,05,21,14,01,12.70
2011,05,21,14,02,12.70
2011,05,21,14,03,12.60
2011,05,21,14,04,12.50
2011,05,21,14,05,12.50
2011,05,21,14,06,12.50
2011,05,21,14,07,12.50
2011,05,21,14,08,12.50
2011,05,21,14,09,12.40
2011,05,21,14,10,12.50
2011,05,21,14,11,12.50
2011,05,21,14,12,12.50
2011,05,21,14,13,12.60
2011,05,21,14,14,12.70
2011,05,21,14,15,12.70
2011,05,21,14,16,12.70
2011,05,21,14,17,12.70
2011,05,21,14,18,12.70
2011,05,21,14,19,12.70
2011,05,21,14,20,12.70
2011,05,21,14,21,12.80
2011,05,21,14,22,12.80
2011,05,21,14,23,12.80
2011,05,21,14,24,12.80
2011,05,21,14,25,12.80
2011,05,21,14,26,12.80
2011,05,21,14,27,12.80
2011,05,21,14,28,12.70
2011,05,21,14,29,12.70
2011,05,21,14,30,12.60
2011,05,21,14,31,12.50
2011,05,21,14,32,12.50
2011,05,21,14,33,12.50
2011,05,21,14,34,12.50
2011,05,21,14,35,12.50
2011,05,21,14,36,12.50
2011,05,21,14,37,12.40
2011,05,21,14,38,12.40
2011,05,21,14,39,12.30
2011,05,21,14,40,12.20
2011,05,21,14,41,12.20
2011,05,21,14,42,12.20
2011,05,21,14,43,12.10
2011,05,21,14,44,12.10
2011,05,21,14,45,12.00
2011,05,21,14,46,12.00
2011,05,21,14,47,12.00
2011,05,21,14,48,12.00
2011,05,21,14,49,11.90
2011,05,21,14,50,11.90
2011,05,21,14,51,11.90
2011,05,21,14,52,11.90
2011,05,21,14,53,11.90
2011,05,21,14,54,11.90
2011,05,21,14,55,11.90
2011,05,21,14,56,11.90
2011,05,21,14,57,11.80
2011,05,21,14,58,11.80
2011,05,21,14,59,11.80
2011,05,21,15,00,11.80
2011,05,21,15,01,11.80
2011,05,21,15,02,11.80
2011,05,21,15,03,11.70
2011,05,21,15,04,11.50
2011,05,21,15,05,11.50
2011,05,21,15,06,11.40
2011,05,21,15,07,11.30
2011,05,21,15,08,11.20
2011,05,21,15,09,11.10
2011,05,21,15,10,11.00
2011,05,21,15,11,11.00
2011,05,21,15,12,10.90
2011,05,21,15,13,10.90
2011,05,21,15,14,11.00
2011,05,21,15,15,11.00
2011,05,21,15,16,11.00
2011,05,21,15,17,11.10
2011,05,21,15,18,11.10
2011,05,21,15,19,11.10
2011,05,21,15,20,11.20
2011,05,21,15,21,11.20
2011,05,21,15,22,11.20
2011,05,21,15,23,11.20
2011,05,21,15,24,11.30
2011,05,21,15,25,11.30
2011,05,21,15,26,11.40
2011,05,21,15,27,11.40
2011,05,21,15,28,11.40
2011,05,21,15,29,11.40
2011,05,21,15,30,11.40
2011,05,21,15,31,11.40
2011,05,21,15,32,11.40
2011,05,21,15,33,11.40
2011,05,21,15,34,11.50
2011,05,21,15,35,11.50
2011,05,21,15,36,11.50
2011,05,21,15,37,11.50
2011,05,21,15,38,11.50
2011,05,21,15,39,11.50
2011,05,21,15,40,11.40
2011,05,21,15,41,11.40
2011,05,21,15,42,11.40
2011,05,21,15,43,11.40
2011,05,21,15,44,11.50
2011,05,21,15,45,11.40
2011,05,21,15,46,11.40
2011,05,21,15,47,11.30
2011,05,21,15,48,11.30
2011,05,21,15,49,11.30
2011,05,21,15,50,11.30
2011,05,21,15,51,11.30
2011,05,21,15,52,11.30
2011,05,21,15,53,11.30
2011,05,21,15,54,11.20
2011,05,21,15,55,11.20
2011,05,21,15,56,11.20
2011,05,21,15,57,11.20
2011,05,21,15,58,11.10
2011,05,21,15,59,11.10
2011,05,21,16,00,11.10
2011,05,21,16,01,11.10
2011,05,21,16,02,11.20
2011,05,21,16,03,11.20
2011,05,21,16,04,11.20
2011,05,21,16,05,11.20
2011,05,21,16,06,11.20
2011,05,21,16,07,11.20
2011,05,21,16,08,11.30
2011,05,21,16,09,11.30
2011,05,21,16,10,11.30
2011,05,21,16,11,11.30
2011,05,21,16,12,11.30
2011,05,21,16,13,11.30
2011,05,21,16,14,11.30
2011,05,21,16,15,11.30
2011,05,21,16,16,11.30
2011,05,21,16,17,11.30
2011,05,21,16,18,11.20
2011,05,21,16,19,11.20
2011,05,21,16,20,11.20
2011,05,21,16,21,11.10
2011,05,21,16,22,11.10
2011,05,21,16,23,11.10
2011,05,21,16,24,11.00
2011,05,21,16,25,11.00
2011,05,21,16,26,11.00
2011,05,21,16,27,10.90
2011,05,21,16,28,11.00
2011,05,21,16,29,11.00
2011,05,21,16,30,11.00
2011,05,21,16,31,11.10
2011,05,21,16,32,11.10
2011,05,21,16,33,11.10
2011,05,21,16,34,11.20
2011,05,21,16,35,11.20
2011,05,21,16,36,11.20
2011,05,21,16,37,11.20
2011,05,21,16,38,11.20
2011,05,21,16,39,11.20
2011,05,21,16,40,11.20
2011,05,21,16,41,11.20
2011,05,21,16,42,11.20
2011,05,21,16,43,11.20
2011,05,21,16,44,11.20
2011,05,21,16,45,11.20
2011,05,21,16,46,11.20
2011,05,21,16,47,11.20
2011,05,21,16,48,11.20
2011,05,21,16,49,11.20
2011,05,21,16,50,11.20
2011,05,21,16,51,11.10
2011,05,21,16,52,11.10
2011,05,21,16,53,11.10
2011,05,21,16,54,11.10
2011,05,21,16,55,11.10
2011,05,21,16,56,11.10
2011,05,21,16,57,11.10
2011,05,21,16,58,11.10
2011,05,21,16,59,11.10
2011,05,21,17,00,11.10
2011,05,21,17,01,11.00
2011,05,21,17,02,11.00
2011,05,21,17,03,11.00
2011,05,21,17,04,10.90
2011,05,21,17,05,10.90
2011,05,21,17,06,10.90
2011,05,21,17,07,10.90
2011,05,21,17,08,10.80
2011,05,21,17,09,10.80
2011,05,21,17,10,10.80
2011,05,21,17,11,10.80
2011,05,21,17,12,10.80
2011,05,21,17,13,10.80
2011,05,21,17,14,10.80
2011,05,21,17,15,10.80
2011,05,21,17,16,10.80
2011,05,21,17,17,10.80
2011,05,21,17,18,10.80
2011,05,21,17,19,10.80